| time (UTC) | temp F | wind direction | speed MPH | gust MPH | rain 1hr in | rain 24hr in | rain mn in | humidity % | barometer mb |
| 20260902115051 | 88 | 11 | 3.0 | 5.0 | 0.00 | 0.00 | 0.00 | 46 | 975.8 |
| 20260902114551 | 88 | 11 | 4.0 | 5.0 | 0.00 | 0.00 | 0.00 | 46 | 975.7 |
| 20260902114054 | 88 | 11 | 3.0 | 4.0 | 0.00 | 0.00 | 0.00 | 46 | 975.7 |
| 20260902113553 | 88 | 11 | 0.0 | 3.0 | 0.00 | 0.00 | 0.00 | 45 | 975.7 |
| 20260902113055 | 89 | 11 | 0.0 | 2.0 | 0.00 | 0.00 | 0.00 | 45 | 975.7 |
| 20260902112550 | 89 | 11 | 0.0 | 1.0 | 0.00 | 0.00 | 0.00 | 45 | 975.6 |
| 20260902112050 | 89 | 11 | 0.0 | 3.0 | 0.00 | 0.00 | 0.00 | 45 | 975.6 |
| 20260902111553 | 89 | 11 | 1.0 | 3.0 | 0.00 | 0.00 | 0.00 | 44 | 975.6 |
| 20260902111053 | 89 | 11 | 1.0 | 3.0 | 0.00 | 0.00 | 0.00 | 44 | 975.6 |
| 20260902110554 | 89 | 11 | 0.0 | 5.0 | 0.00 | 0.00 | 0.00 | 44 | 975.6 |
| 20260902110054 | 89 | 11 | 1.0 | 5.0 | 0.00 | 0.00 | 0.00 | 44 | 975.6 |
| 20260902105550 | 90 | 11 | 2.0 | 6.0 | 0.00 | 0.00 | 0.00 | 44 | 975.6 |
| 20260902105050 | 90 | 11 | 3.0 | 9.0 | 0.00 | 0.00 | 0.00 | 44 | 975.6 |
| 20260902104555 | 90 | 11 | 4.0 | 10.0 | 0.00 | 0.00 | 0.00 | 43 | 975.6 |
| 20260902104050 | 90 | 11 | 5.0 | 10.0 | 0.00 | 0.00 | 0.00 | 43 | 975.6 |
| 20260902103550 | 90 | 11 | 5.0 | 10.0 | 0.00 | 0.00 | 0.00 | 43 | 975.6 |
| 20260902103050 | 90 | 11 | 3.0 | 10.0 | 0.00 | 0.00 | 0.00 | 43 | 975.6 |
| 20260902102550 | 90 | 11 | 4.0 | 12.0 | 0.00 | 0.00 | 0.00 | 43 | 975.6 |
| 20260902102051 | 90 | 11 | 4.0 | 12.0 | 0.00 | 0.00 | 0.00 | 43 | 975.6 |
| 20260902101600 | 90 | 11 | 5.0 | 11.0 | 0.00 | 0.00 | 0.00 | 43 | 975.6 |
| 20260902101052 | 90 | 11 | 6.0 | 11.0 | 0.00 | 0.00 | 0.00 | 42 | 975.6 |
| 20260902100550 | 90 | 11 | 7.0 | 12.0 | 0.00 | 0.00 | 0.00 | 42 | 975.6 |
| 20260902100105 | 91 | 10 | 8.0 | 12.0 | 0.00 | 0.00 | 0.00 | 42 | 975.6 |
| 20260902095550 | 91 | 11 | 8.0 | 12.0 | 0.00 | 0.00 | 0.00 | 42 | 975.6 |
| 20260902095050 | 91 | 11 | 6.0 | 12.0 | 0.00 | 0.00 | 0.00 | 42 | 975.6 |
| 20260902094550 | 91 | 11 | 7.0 | 13.0 | 0.00 | 0.00 | 0.00 | 42 | 975.6 |
| 20260902094050 | 91 | 11 | 9.0 | 13.0 | 0.00 | 0.00 | 0.00 | 42 | 975.6 |
| 20260902093550 | 91 | 11 | 8.0 | 13.0 | 0.00 | 0.00 | 0.00 | 42 | 975.6 |
| 20260902093051 | 91 | 11 | 8.0 | 13.0 | 0.00 | 0.00 | 0.00 | 42 | 975.6 |
| 20260902092554 | 91 | 11 | 7.0 | 13.0 | 0.00 | 0.00 | 0.00 | 42 | 975.7 |
| 20260902092050 | 91 | 11 | 8.0 | 13.0 | 0.00 | 0.00 | 0.00 | 42 | 975.6 |
| 20260902091554 | 92 | 11 | 7.0 | 14.0 | 0.00 | 0.00 | 0.00 | 41 | 975.6 |
| 20260902091053 | 92 | 11 | 6.0 | 14.0 | 0.00 | 0.00 | 0.00 | 41 | 975.5 |
| 20260902090550 | 92 | 11 | 7.0 | 16.0 | 0.00 | 0.00 | 0.00 | 40 | 975.5 |
| 20260902090050 | 92 | 10 | 10.0 | 16.0 | 0.00 | 0.00 | 0.00 | 40 | 975.6 |
| 20260902085553 | 92 | 11 | 10.0 | 16.0 | 0.00 | 0.00 | 0.00 | 41 | 975.5 |
| 20260902085051 | 92 | 10 | 11.0 | 17.0 | 0.00 | 0.00 | 0.00 | 40 | 975.4 |
| 20260902084600 | 92 | 10 | 12.0 | 17.0 | 0.00 | 0.00 | 0.00 | 40 | 975.4 |
| 20260902084051 | 92 | 11 | 11.0 | 17.0 | 0.00 | 0.00 | 0.00 | 41 | 975.4 |
| 20260902083551 | 92 | 10 | 9.0 | 17.0 | 0.00 | 0.00 | 0.00 | 41 | 975.4 |
| 20260902083052 | 92 | 10 | 11.0 | 16.0 | 0.00 | 0.00 | 0.00 | 41 | 975.5 |
| 20260902082550 | 92 | 11 | 10.0 | 17.0 | 0.00 | 0.00 | 0.00 | 42 | 975.5 |
| 20260902082050 | 92 | 11 | 9.0 | 18.0 | 0.00 | 0.00 | 0.00 | 42 | 975.6 |
| 20260902081601 | 93 | 11 | 12.0 | 18.0 | 0.00 | 0.00 | 0.00 | 41 | 975.5 |
| 20260902081050 | 93 | 11 | 11.0 | 20.0 | 0.00 | 0.00 | 0.00 | 41 | 975.6 |
| 20260902080550 | 93 | 11 | 12.0 | 20.0 | 0.00 | 0.00 | 0.00 | 41 | 975.6 |
| 20260902080051 | 93 | 10 | 12.0 | 19.0 | 0.00 | 0.00 | 0.00 | 41 | 975.5 |
| 20260902075550 | 93 | 10 | 11.0 | 19.0 | 0.00 | 0.00 | 0.00 | 41 | 975.6 |
| 20260902075053 | 93 | 9 | 9.0 | 19.0 | 0.00 | 0.00 | 0.00 | 41 | 975.5 |
| 20260902074550 | 93 | 10 | 10.0 | 19.0 | 0.00 | 0.00 | 0.00 | 40 | 975.6 |
| 20260902074051 | 93 | 10 | 11.0 | 21.0 | 0.00 | 0.00 | 0.00 | 40 | 975.5 |
| 20260902073550 | 93 | 10 | 15.0 | 21.0 | 0.00 | 0.00 | 0.00 | 40 | 975.5 |
| 20260902073055 | 93 | 10 | 11.0 | 20.0 | 0.00 | 0.00 | 0.00 | 40 | 975.4 |
| 20260902072550 | 93 | 11 | 12.0 | 20.0 | 0.00 | 0.00 | 0.00 | 40 | 975.5 |
| 20260902072053 | 93 | 10 | 11.0 | 19.0 | 0.00 | 0.00 | 0.00 | 41 | 975.5 |
| 20260902071550 | 94 | 10 | 10.0 | 20.0 | 0.00 | 0.00 | 0.00 | 41 | 975.4 |
| 20260902071050 | 94 | 10 | 8.0 | 16.0 | 0.00 | 0.00 | 0.00 | 41 | 975.3 |
| 20260902070551 | 94 | 11 | 8.0 | 18.0 | 0.00 | 0.00 | 0.00 | 41 | 975.2 |
| 20260902070050 | 94 | 10 | 9.0 | 18.0 | 0.00 | 0.00 | 0.00 | 41 | 975.3 |
| 20260902065551 | 94 | 10 | 8.0 | 16.0 | 0.00 | 0.00 | 0.00 | 41 | 975.3 |
| 20260902065050 | 94 | 10 | 9.0 | 15.0 | 0.00 | 0.00 | 0.00 | 41 | 975.3 |
| 20260902064557 | 94 | 10 | 11.0 | 15.0 | 0.00 | 0.00 | 0.00 | 41 | 975.3 |
| 20260902064051 | 94 | 11 | 8.0 | 14.0 | 0.00 | 0.00 | 0.00 | 41 | 975.3 |
| 20260902063550 | 94 | 11 | 8.0 | 14.0 | 0.00 | 0.00 | 0.00 | 41 | 975.3 |
| 20260902063053 | 94 | 10 | 5.0 | 16.0 | 0.00 | 0.00 | 0.00 | 41 | 975.2 |
| 20260902062554 | 94 | 9 | 9.0 | 17.0 | 0.00 | 0.00 | 0.00 | 41 | 975.3 |
| 20260902062051 | 94 | 10 | 9.0 | 18.0 | 0.00 | 0.00 | 0.00 | 41 | 975.2 |
| 20260902061604 | 94 | 11 | 9.0 | 18.0 | 0.00 | 0.00 | 0.00 | 40 | 975.4 |
| 20260902061050 | 95 | 10 | 10.0 | 18.0 | 0.00 | 0.00 | 0.00 | 40 | 975.4 |
| 20260902060550 | 95 | 9 | 7.0 | 21.0 | 0.00 | 0.00 | 0.00 | 39 | 975.3 |
| 20260902060054 | 95 | 10 | 7.0 | 21.0 | 0.00 | 0.00 | 0.00 | 39 | 975.4 |
| 20260902055553 | 95 | 9 | 9.0 | 21.0 | 0.00 | 0.00 | 0.00 | 39 | 975.3 |
| 20260902055050 | 95 | 9 | 12.0 | 21.0 | 0.00 | 0.00 | 0.00 | 39 | 975.4 |
| 20260902054552 | 95 | 10 | 9.0 | 17.0 | 0.00 | 0.00 | 0.00 | 38 | 975.5 |
| 20260902054050 | 94 | 10 | 9.0 | 17.0 | 0.00 | 0.00 | 0.00 | 39 | 975.4 |
| 20260902053550 | 93 | 9 | 5.0 | 12.0 | 0.00 | 0.00 | 0.00 | 40 | 975.4 |
| 20260902053050 | 94 | 16 | 4.0 | 6.0 | 0.00 | 0.00 | 0.00 | 41 | 975.4 |
| 20260902052551 | 94 | 16 | 3.0 | 6.0 | 0.00 | 0.00 | 0.00 | 39 | 975.3 |
| 20260902052050 | 95 | 5 | 2.0 | 4.0 | 0.00 | 0.00 | 0.00 | 39 | 975.3 |
| 20260902051550 | 95 | 5 | 2.0 | 6.0 | 0.00 | 0.00 | 0.00 | 38 | 975.2 |
| 20260902051052 | 95 | 5 | 3.0 | 6.0 | 0.00 | 0.00 | 0.00 | 38 | 975.3 |
| 20260902050550 | 95 | 9 | 1.0 | 8.0 | 0.00 | 0.00 | 0.00 | 38 | 975.3 |
| 20260902050104 | 95 | 9 | 3.0 | 10.0 | 0.00 | 0.00 | 0.00 | 38 | 975.3 |
| 20260902045550 | 95 | 9 | 2.0 | 10.0 | 0.00 | 0.00 | 0.00 | 38 | 975.3 |
| 20260902045050 | 95 | 9 | 3.0 | 8.0 | 0.00 | 0.00 | 0.00 | 39 | 975.4 |
| 20260902044552 | 95 | 9 | 5.0 | 8.0 | 0.00 | 0.00 | 0.00 | 39 | 975.3 |
| 20260902044051 | 94 | 9 | 3.0 | 9.0 | 0.00 | 0.00 | 0.00 | 40 | 975.1 |
| 20260902043552 | 94 | 9 | 5.0 | 10.0 | 0.00 | 0.00 | 0.00 | 40 | 975.1 |
| 20260902043051 | 94 | 9 | 6.0 | 11.0 | 0.00 | 0.00 | 0.00 | 40 | 975.1 |
| 20260902042550 | 93 | 9 | 5.0 | 10.0 | 0.00 | 0.00 | 0.00 | 41 | 975.0 |
| 20260902042050 | 93 | 9 | 4.0 | 8.0 | 0.00 | 0.00 | 0.00 | 41 | 974.9 |
| 20260902041551 | 93 | 17 | 4.0 | 6.0 | 0.00 | 0.00 | 0.00 | 41 | 974.8 |
| 20260902041050 | 94 | 16 | 3.0 | 6.0 | 0.00 | 0.00 | 0.00 | 40 | 974.9 |
| 20260902040550 | 95 | 16 | 3.0 | 6.0 | 0.00 | 0.00 | 0.00 | 40 | 974.8 |
| 20260902040050 | 95 | 9 | 4.0 | 7.0 | 0.00 | 0.00 | 0.00 | 38 | 974.9 |
| 20260902035550 | 95 | 9 | 3.0 | 5.0 | 0.00 | 0.00 | 0.00 | 38 | 974.8 |
| 20260902035050 | 95 | 9 | 2.0 | 8.0 | 0.00 | 0.00 | 0.00 | 38 | 974.7 |
| 20260902034550 | 95 | 9 | 4.0 | 9.0 | 0.00 | 0.00 | 0.00 | 38 | 974.7 |
| 20260902034052 | 95 | 9 | 5.0 | 9.0 | 0.00 | 0.00 | 0.00 | 38 | 974.7 |
| 20260902033552 | 95 | 9 | 7.0 | 10.0 | 0.00 | 0.00 | 0.00 | 38 | 974.6 |
| 20260902033052 | 96 | 9 | 7.0 | 10.0 | 0.00 | 0.00 | 0.00 | 38 | 974.4 |
| 20260902032549 | 96 | 9 | 5.0 | 8.0 | 0.00 | 0.00 | 0.00 | 38 | 974.4 |
| 20260902032050 | 95 | 9 | 4.0 | 9.0 | 0.00 | 0.00 | 0.00 | 39 | 974.4 |
| 20260902031550 | 96 | 9 | 4.0 | 9.0 | 0.00 | 0.00 | 0.00 | 39 | 974.2 |
| 20260902031051 | 96 | 9 | 5.0 | 8.0 | 0.00 | 0.00 | 0.00 | 39 | 974.1 |
| 20260902030549 | 96 | 9 | 4.0 | 8.0 | 0.00 | 0.00 | 0.00 | 39 | 974.0 |
| 20260902030051 | 96 | 9 | 3.0 | 8.0 | 0.00 | 0.00 | 0.00 | 39 | 974.0 |
| 20260902025551 | 96 | 9 | 4.0 | 8.0 | 0.00 | 0.00 | 0.00 | 39 | 973.8 |
| 20260902025054 | 96 | 5 | 4.0 | 8.0 | 0.00 | 0.00 | 0.00 | 39 | 973.7 |
| 20260902024551 | 96 | 5 | 4.0 | 8.0 | 0.00 | 0.00 | 0.00 | 39 | 973.7 |
| 20260902024050 | 96 | 5 | 3.0 | 8.0 | 0.00 | 0.00 | 0.00 | 39 | 973.5 |
| 20260902023550 | 96 | 5 | 4.0 | 6.0 | 0.00 | 0.00 | 0.00 | 39 | 973.6 |
| 20260902023054 | 96 | 5 | 4.0 | 8.0 | 0.00 | 0.00 | 0.00 | 39 | 973.5 |
| 20260902022550 | 96 | 360 | 4.0 | 8.0 | 0.00 | 0.00 | 0.00 | 39 | 973.6 |
| 20260902022050 | 96 | 5 | 4.0 | 8.0 | 0.00 | 0.00 | 0.00 | 39 | 973.6 |
| 20260902021550 | 96 | 5 | 5.0 | 8.0 | 0.00 | 0.00 | 0.00 | 39 | 973.6 |
| 20260902021051 | 97 | 5 | 4.0 | 6.0 | 0.00 | 0.00 | 0.00 | 38 | 973.6 |
| 20260902020550 | 97 | 15 | 2.0 | 4.0 | 0.00 | 0.00 | 0.00 | 38 | 973.6 |
| 20260902020054 | 97 | 15 | 1.0 | 3.0 | 0.00 | 0.00 | 0.00 | 38 | 973.6 |
| 20260902015552 | 97 | 15 | 1.0 | 3.0 | 0.00 | 0.00 | 0.00 | 37 | 973.6 |
| 20260902015050 | 97 | 15 | 1.0 | 4.0 | 0.00 | 0.00 | 0.00 | 37 | 973.6 |
| 20260902014551 | 97 | 15 | 2.0 | 5.0 | 0.00 | 0.00 | 0.00 | 37 | 973.5 |
| 20260902014050 | 97 | 15 | 1.0 | 5.0 | 0.00 | 0.00 | 0.00 | 37 | 973.4 |
| 20260902013550 | 97 | 15 | 0.0 | 5.0 | 0.00 | 0.00 | 0.00 | 37 | 973.4 |
| 20260902013050 | 97 | 15 | 1.0 | 6.0 | 0.00 | 0.00 | 0.00 | 37 | 973.5 |
| 20260902012550 | 98 | 17 | 1.0 | 5.0 | 0.00 | 0.00 | 0.00 | 37 | 973.4 |
| 20260902012050 | 98 | 279 | 3.0 | 5.0 | 0.00 | 0.00 | 0.00 | 37 | 973.4 |
| 20260902011553 | 98 | 279 | 2.0 | 7.0 | 0.00 | 0.00 | 0.00 | 37 | 973.4 |
| 20260902011050 | 98 | 279 | 2.0 | 7.0 | 0.00 | 0.00 | 0.00 | 37 | 973.4 |
| 20260902010550 | 98 | 277 | 4.0 | 8.0 | 0.00 | 0.00 | 0.00 | 37 | 973.5 |
| 20260902005551 | 98 | 267 | 1.0 | 7.0 | 0.00 | 0.00 | 0.00 | 36 | 973.5 |
| 20260902005050 | 98 | 242 | 2.0 | 8.0 | 0.00 | 0.00 | 0.00 | 36 | 973.6 |
| 20260902004550 | 98 | 308 | 4.0 | 8.0 | 0.00 | 0.00 | 0.00 | 36 | 973.8 |
| 20260902004052 | 98 | 290 | 4.0 | 8.0 | 0.00 | 0.00 | 0.00 | 36 | 973.7 |
| 20260902003550 | 99 | 249 | 4.0 | 9.0 | 0.00 | 0.00 | 0.00 | 36 | 973.6 |
| 20260902003050 | 99 | 257 | 3.0 | 11.0 | 0.00 | 0.00 | 0.00 | 36 | 973.7 |
| 20260902002553 | 99 | 280 | 4.0 | 11.0 | 0.00 | 0.00 | 0.00 | 36 | 973.8 |
| 20260902002050 | 99 | 242 | 3.0 | 7.0 | 0.00 | 0.00 | 0.00 | 36 | 973.8 |
| 20260902001550 | 98 | 246 | 3.0 | 6.0 | 0.00 | 0.00 | 0.00 | 36 | 973.8 |
| 20260902001051 | 98 | 18 | 3.0 | 8.0 | 0.00 | 0.00 | 0.00 | 37 | 973.9 |
| 20260902000550 | 98 | 18 | 4.0 | 11.0 | 0.00 | 0.00 | 0.00 | 37 | 974.0 |
| 20260902000052 | 98 | 15 | 3.0 | 6.0 | 0.00 | 0.00 | 0.00 | 37 | 973.8 |
| 20260901235550 | 99 | 15 | 4.0 | 9.0 | 0.00 | 0.00 | 0.00 | 36 | 973.9 |
| 20260901235050 | 99 | 26 | 4.0 | 9.0 | 0.00 | 0.00 | 0.00 | 36 | 974.1 |
| 20260901234550 | 100 | 234 | 4.0 | 12.0 | 0.00 | 0.00 | 0.00 | 36 | 974.1 |
| 20260901234050 | 100 | 238 | 6.0 | 12.0 | 0.00 | 0.00 | 0.00 | 34 | 974.0 |
| 20260901233551 | 101 | 208 | 3.0 | 6.0 | 0.00 | 0.00 | 0.00 | 34 | 974.1 |
| 20260901233050 | 101 | 173 | 0.0 | 8.0 | 0.00 | 0.00 | 0.00 | 32 | 974.1 |
| 20260901232550 | 101 | 155 | 4.0 | 8.0 | 0.00 | 0.00 | 0.00 | 32 | 974.1 |
| 20260901232050 | 101 | 291 | 3.0 | 10.0 | 0.00 | 0.00 | 0.00 | 33 | 974.2 |
| 20260901231550 | 100 | 141 | 6.0 | 14.0 | 0.00 | 0.00 | 0.00 | 33 | 974.3 |
| 20260901231050 | 100 | 121 | 3.0 | 14.0 | 0.00 | 0.00 | 0.00 | 33 | 974.3 |
| 20260901230550 | 101 | 138 | 3.0 | 12.0 | 0.00 | 0.00 | 0.00 | 33 | 974.4 |
| 20260901230049 | 101 | 149 | 6.0 | 13.0 | 0.00 | 0.00 | 0.00 | 32 | 974.3 |
| 20260901225553 | 101 | 112 | 0.0 | 8.0 | 0.00 | 0.00 | 0.00 | 33 | 974.4 |
| 20260901225050 | 101 | 168 | 0.0 | 7.0 | 0.00 | 0.00 | 0.00 | 33 | 974.5 |
| 20260901224556 | 100 | 54 | 2.0 | 11.0 | 0.00 | 0.00 | 0.00 | 33 | 974.5 |
| 20260901224050 | 100 | 66 | 6.0 | 12.0 | 0.00 | 0.00 | 0.00 | 33 | 974.5 |
| 20260901223550 | 100 | 26 | 4.0 | 12.0 | 0.00 | 0.00 | 0.00 | 36 | 974.6 |
| 20260901223055 | 99 | 43 | 2.0 | 9.0 | 0.00 | 0.00 | 0.00 | 36 | 974.5 |
| 20260901222550 | 99 | 44 | 2.0 | 15.0 | 0.00 | 0.00 | 0.00 | 37 | 974.7 |
| 20260901222050 | 99 | 36 | 7.0 | 15.0 | 0.00 | 0.00 | 0.00 | 37 | 974.7 |
| 20260901221558 | 99 | 5 | 9.0 | 13.0 | 0.00 | 0.00 | 0.00 | 37 | 974.8 |
| 20260901221051 | 98 | 27 | 8.0 | 13.0 | 0.00 | 0.00 | 0.00 | 37 | 974.9 |
| 20260901220550 | 98 | 319 | 6.0 | 11.0 | 0.00 | 0.00 | 0.00 | 37 | 975.0 |
| 20260901220050 | 99 | 302 | 6.0 | 11.0 | 0.00 | 0.00 | 0.00 | 38 | 975.0 |
| 20260901215550 | 98 | 141 | 2.0 | 7.0 | 0.00 | 0.00 | 0.00 | 38 | 975.1 |
| 20260901215049 | 98 | 54 | 1.0 | 11.0 | 0.00 | 0.00 | 0.00 | 39 | 975.1 |
| 20260901214559 | 99 | 29 | 6.0 | 11.0 | 0.00 | 0.00 | 0.00 | 38 | 975.2 |
| 20260901214050 | 99 | 344 | 4.0 | 9.0 | 0.00 | 0.00 | 0.00 | 39 | 975.4 |
| 20260901213551 | 97 | 259 | 0.0 | 12.0 | 0.00 | 0.00 | 0.00 | 40 | 975.4 |
| 20260901213055 | 97 | 22 | 2.0 | 17.0 | 0.00 | 0.00 | 0.00 | 41 | 975.5 |
| 20260901212551 | 97 | 15 | 10.0 | 17.0 | 0.00 | 0.00 | 0.00 | 41 | 975.6 |
| 20260901212051 | 96 | 344 | 8.0 | 15.0 | 0.00 | 0.00 | 0.00 | 42 | 975.7 |
| 20260901211550 | 96 | 281 | 10.0 | 17.0 | 0.00 | 0.00 | 0.00 | 42 | 975.9 |
| 20260901211050 | 96 | 331 | 7.0 | 17.0 | 0.00 | 0.00 | 0.00 | 42 | 976.0 |
| 20260901210551 | 96 | 298 | 9.0 | 15.0 | 0.00 | 0.00 | 0.00 | 42 | 976.0 |
| 20260901210109 | 96 | 256 | 9.0 | 16.0 | 0.00 | 0.00 | 0.00 | 42 | 976.1 |
| 20260901205551 | 96 | 301 | 10.0 | 18.0 | 0.00 | 0.00 | 0.00 | 42 | 976.2 |
| 20260901205049 | 96 | 177 | 11.0 | 18.0 | 0.00 | 0.00 | 0.00 | 42 | 976.3 |
| 20260901204550 | 96 | 312 | 8.0 | 14.0 | 0.00 | 0.00 | 0.00 | 42 | 976.4 |
| 20260901204053 | 96 | 32 | 5.0 | 14.0 | 0.00 | 0.00 | 0.00 | 42 | 976.5 |
| 20260901203550 | 96 | 19 | 7.0 | 15.0 | 0.00 | 0.00 | 0.00 | 42 | 976.6 |
| 20260901203050 | 95 | 333 | 5.0 | 18.0 | 0.00 | 0.00 | 0.00 | 43 | 976.6 |
| 20260901202550 | 95 | 329 | 10.0 | 18.0 | 0.00 | 0.00 | 0.00 | 43 | 976.8 |
| 20260901202051 | 96 | 310 | 8.0 | 12.0 | 0.00 | 0.00 | 0.00 | 43 | 976.8 |
| 20260901201550 | 96 | 17 | 3.0 | 13.0 | 0.00 | 0.00 | 0.00 | 43 | 976.9 |
| 20260901201050 | 96 | 16 | 6.0 | 14.0 | 0.00 | 0.00 | 0.00 | 43 | 976.8 |
| 20260901200550 | 96 | 16 | 7.0 | 14.0 | 0.00 | 0.00 | 0.00 | 43 | 976.8 |
| 20260901200050 | 95 | 14 | 3.0 | 14.0 | 0.00 | 0.00 | 0.00 | 44 | 977.1 |
| 20260901195550 | 96 | 17 | 6.0 | 15.0 | 0.00 | 0.00 | 0.00 | 43 | 977.1 |
| 20260901195052 | 95 | 5 | 10.0 | 15.0 | 0.00 | 0.00 | 0.00 | 45 | 977.1 |
| 20260901194554 | 94 | 15 | 9.0 | 14.0 | 0.00 | 0.00 | 0.00 | 44 | 977.3 |
| 20260901194050 | 95 | 15 | 6.0 | 13.0 | 0.00 | 0.00 | 0.00 | 45 | 977.4 |
| 20260901193550 | 95 | 17 | 6.0 | 12.0 | 0.00 | 0.00 | 0.00 | 45 | 977.5 |
| 20260901193050 | 94 | 16 | 5.0 | 17.0 | 0.00 | 0.00 | 0.00 | 46 | 977.5 |
| 20260901192551 | 94 | 15 | 5.0 | 17.0 | 0.00 | 0.00 | 0.00 | 46 | 977.6 |
| 20260901192056 | 94 | 15 | 3.0 | 9.0 | 0.00 | 0.00 | 0.00 | 46 | 977.7 |
| 20260901191553 | 94 | 271 | 4.0 | 15.0 | 0.00 | 0.00 | 0.00 | 46 | 977.8 |
| 20260901191050 | 94 | 17 | 8.0 | 15.0 | 0.00 | 0.00 | 0.00 | 46 | 977.9 |
| 20260901190550 | 93 | 13 | 5.0 | 13.0 | 0.00 | 0.00 | 0.00 | 47 | 978.0 |
| 20260901190054 | 93 | 17 | 2.0 | 16.0 | 0.00 | 0.00 | 0.00 | 47 | 978.2 |
| 20260901185551 | 93 | 16 | 5.0 | 16.0 | 0.00 | 0.00 | 0.00 | 47 | 978.2 |
| 20260901185052 | 93 | 16 | 8.0 | 13.0 | 0.00 | 0.00 | 0.00 | 47 | 978.2 |
| 20260901184559 | 93 | 19 | 6.0 | 11.0 | 0.00 | 0.00 | 0.00 | 47 | 978.1 |
| 20260901184050 | 93 | 292 | 3.0 | 15.0 | 0.00 | 0.00 | 0.00 | 48 | 978.3 |
| 20260901183550 | 92 | 9 | 4.0 | 11.0 | 0.00 | 0.00 | 0.00 | 48 | 978.3 |
| 20260901183104 | 92 | 15 | 8.0 | 13.0 | 0.00 | 0.00 | 0.00 | 49 | 978.6 |
| 20260901182550 | 92 | 15 | 7.0 | 13.0 | 0.00 | 0.00 | 0.00 | 48 | 978.7 |
| 20260901182050 | 91 | 15 | 3.0 | 14.0 | 0.00 | 0.00 | 0.00 | 49 | 978.5 |
| 20260901181550 | 91 | 288 | 5.0 | 14.0 | 0.00 | 0.00 | 0.00 | 49 | 978.5 |
| 20260901181050 | 92 | 286 | 6.0 | 14.0 | 0.00 | 0.00 | 0.00 | 49 | 978.7 |
| 20260901180550 | 91 | 15 | 6.0 | 14.0 | 0.00 | 0.00 | 0.00 | 49 | 978.8 |
| 20260901180050 | 91 | 15 | 3.0 | 12.0 | 0.00 | 0.00 | 0.00 | 49 | 978.8 |
| 20260901175551 | 91 | 5 | 3.0 | 12.0 | 0.00 | 0.00 | 0.00 | 50 | 978.8 |
| 20260901175050 | 90 | 16 | 6.0 | 12.0 | 0.00 | 0.00 | 0.00 | 50 | 978.9 |
| 20260901174550 | 90 | 17 | 5.0 | 12.0 | 0.00 | 0.00 | 0.00 | 50 | 978.8 |
| 20260901174050 | 90 | 326 | 5.0 | 12.0 | 0.00 | 0.00 | 0.00 | 50 | 978.9 |
| 20260901173549 | 90 | 5 | 4.0 | 10.0 | 0.00 | 0.00 | 0.00 | 50 | 979.0 |
| 20260901173053 | 89 | 298 | 4.0 | 10.0 | 0.00 | 0.00 | 0.00 | 51 | 979.0 |
| 20260901172550 | 89 | 338 | 5.0 | 10.0 | 0.00 | 0.00 | 0.00 | 52 | 979.0 |
| 20260901172049 | 89 | 301 | 4.0 | 11.0 | 0.00 | 0.00 | 0.00 | 53 | 979.1 |
| 20260901171557 | 88 | 298 | 7.0 | 12.0 | 0.00 | 0.00 | 0.00 | 54 | 979.2 |
| 20260901171050 | 88 | 5 | 6.0 | 12.0 | 0.00 | 0.00 | 0.00 | 54 | 979.2 |
| 20260901170550 | 88 | 298 | 8.0 | 12.0 | 0.00 | 0.00 | 0.00 | 55 | 979.1 |
| 20260901170051 | 88 | 322 | 4.0 | 10.0 | 0.00 | 0.00 | 0.00 | 56 | 979.1 |
| 20260901165550 | 88 | 5 | 4.0 | 10.0 | 0.00 | 0.00 | 0.00 | 56 | 979.2 |
| 20260901165053 | 87 | 355 | 4.0 | 11.0 | 0.00 | 0.00 | 0.00 | 57 | 979.0 |
| 20260901164550 | 86 | 317 | 8.0 | 11.0 | 0.00 | 0.00 | 0.00 | 58 | 979.2 |
| 20260901164050 | 86 | 313 | 7.0 | 13.0 | 0.00 | 0.00 | 0.00 | 58 | 979.2 |
| 20260901163550 | 86 | 315 | 8.0 | 13.0 | 0.00 | 0.00 | 0.00 | 58 | 979.1 |
| 20260901163057 | 86 | 330 | 8.0 | 12.0 | 0.00 | 0.00 | 0.00 | 58 | 979.1 |
| 20260901162552 | 86 | 13 | 5.0 | 12.0 | 0.00 | 0.00 | 0.00 | 59 | 978.9 |
| 20260901162050 | 86 | 338 | 9.0 | 12.0 | 0.00 | 0.00 | 0.00 | 59 | 979.0 |
| 20260901161558 | 86 | 317 | 5.0 | 11.0 | 0.00 | 0.00 | 0.00 | 60 | 978.9 |
| 20260901161051 | 85 | 314 | 6.0 | 10.0 | 0.00 | 0.00 | 0.00 | 59 | 978.9 |
| 20260901160555 | 85 | 323 | 5.0 | 10.0 | 0.00 | 0.00 | 0.00 | 60 | 978.9 |
| 20260901160050 | 84 | 321 | 6.0 | 10.0 | 0.00 | 0.00 | 0.00 | 60 | 978.8 |
| 20260901155550 | 84 | 317 | 6.0 | 10.0 | 0.00 | 0.00 | 0.00 | 61 | 978.8 |
| 20260901155051 | 84 | 305 | 5.0 | 12.0 | 0.00 | 0.00 | 0.00 | 61 | 978.8 |
| 20260901154613 | 84 | 321 | 7.0 | 12.0 | 0.00 | 0.00 | 0.00 | 62 | 978.8 |
| 20260901154050 | 83 | 320 | 6.0 | 10.0 | 0.00 | 0.00 | 0.00 | 62 | 978.8 |
| 20260901153554 | 83 | 332 | 7.0 | 10.0 | 0.00 | 0.00 | 0.00 | 63 | 978.8 |
| 20260901153052 | 83 | 345 | 4.0 | 10.0 | 0.00 | 0.00 | 0.00 | 64 | 978.8 |
| 20260901152550 | 82 | 320 | 7.0 | 11.0 | 0.00 | 0.00 | 0.00 | 64 | 978.8 |
| 20260901152050 | 82 | 315 | 6.0 | 11.0 | 0.00 | 0.00 | 0.00 | 64 | 978.9 |
| 20260901151550 | 82 | 323 | 8.0 | 11.0 | 0.00 | 0.00 | 0.00 | 65 | 978.9 |
| 20260901151049 | 82 | 323 | 9.0 | 11.0 | 0.00 | 0.00 | 0.00 | 65 | 978.8 |
| 20260901150553 | 81 | 311 | 6.0 | 10.0 | 0.00 | 0.00 | 0.00 | 67 | 978.9 |
| 20260901145550 | 80 | 333 | 2.0 | 10.0 | 0.00 | 0.00 | 0.00 | 69 | 978.6 |
| 20260901145049 | 80 | 322 | 6.0 | 10.0 | 0.00 | 0.00 | 0.00 | 70 | 978.6 |
| 20260901144550 | 79 | 309 | 5.0 | 10.0 | 0.00 | 0.00 | 0.00 | 71 | 978.5 |
| 20260901144053 | 79 | 319 | 5.0 | 9.0 | 0.00 | 0.00 | 0.00 | 72 | 978.5 |
| 20260901143550 | 79 | 309 | 3.0 | 9.0 | 0.00 | 0.00 | 0.00 | 72 | 978.7 |
| 20260901143050 | 78 | 320 | 5.0 | 9.0 | 0.00 | 0.00 | 0.00 | 73 | 978.5 |
| 20260901142550 | 78 | 298 | 5.0 | 9.0 | 0.00 | 0.00 | 0.00 | 74 | 978.5 |
| 20260901142050 | 77 | 307 | 6.0 | 9.0 | 0.00 | 0.00 | 0.00 | 75 | 978.5 |
| 20260901141559 | 77 | 311 | 1.0 | 6.0 | 0.00 | 0.00 | 0.00 | 76 | 978.5 |
| 20260901141051 | 77 | 315 | 3.0 | 6.0 | 0.00 | 0.00 | 0.00 | 76 | 978.5 |
| 20260901140550 | 76 | 320 | 2.0 | 8.0 | 0.00 | 0.00 | 0.00 | 76 | 978.5 |
| 20260901140056 | 76 | 321 | 4.0 | 8.0 | 0.00 | 0.00 | 0.00 | 76 | 978.3 |
| 20260901135551 | 76 | 310 | 1.0 | 6.0 | 0.00 | 0.00 | 0.00 | 77 | 978.3 |
| 20260901135052 | 76 | 306 | 1.0 | 8.0 | 0.00 | 0.00 | 0.00 | 77 | 978.3 |
| 20260901134550 | 76 | 311 | 4.0 | 8.0 | 0.00 | 0.00 | 0.00 | 77 | 978.3 |
| 20260901134049 | 75 | 360 | 4.0 | 6.0 | 0.00 | 0.00 | 0.00 | 78 | 978.2 |
| 20260901133550 | 75 | 360 | 0.0 | 2.0 | 0.00 | 0.00 | 0.00 | 79 | 978.3 |
| 20260901133053 | 75 | 355 | 0.0 | 0.0 | 0.00 | 0.00 | 0.00 | 79 | 978.2 |
| 20260901132550 | 75 | 355 | 0.0 | 0.0 | 0.00 | 0.00 | 0.00 | 79 | 978.2 |
| 20260901132051 | 75 | 355 | 0.0 | 0.0 | 0.00 | 0.00 | 0.00 | 79 | 978.1 |
| 20260901131549 | 75 | 355 | 0.0 | 0.0 | 0.00 | 0.00 | 0.00 | 79 | 978.2 |
| 20260901131051 | 75 | 355 | 0.0 | 0.0 | 0.00 | 0.00 | 0.00 | 78 | 978.1 |
| 20260901130550 | 75 | 355 | 0.0 | 5.0 | 0.00 | 0.00 | 0.00 | 78 | 978.1 |
| 20260901130050 | 75 | 355 | 1.0 | 6.0 | 0.00 | 0.00 | 0.00 | 79 | 978.0 |
| 20260901125550 | 74 | 355 | 4.0 | 6.0 | 0.00 | 0.00 | 0.00 | 79 | 978.0 |
| 20260901125050 | 74 | 360 | 0.0 | 0.0 | 0.00 | 0.00 | 0.00 | 79 | 977.9 |
| 20260901124550 | 74 | 308 | 0.0 | 0.0 | 0.00 | 0.00 | 0.00 | 79 | 977.9 |
| 20260901124052 | 74 | 308 | 0.0 | 0.0 | 0.00 | 0.00 | 0.00 | 78 | 977.8 |
| 20260901123550 | 75 | 308 | 0.0 | 2.0 | 0.00 | 0.00 | 0.00 | 77 | 977.8 |
| 20260901123054 | 75 | 308 | 0.0 | 2.0 | 0.00 | 0.00 | 0.00 | 78 | 977.7 |
| 20260901122550 | 75 | 306 | 0.0 | 1.0 | 0.00 | 0.00 | 0.00 | 78 | 977.7 |
| 20260901122049 | 75 | 304 | 0.0 | 1.0 | 0.00 | 0.00 | 0.00 | 78 | 977.5 |
| 20260901121551 | 75 | 311 | 0.0 | 1.0 | 0.00 | 0.00 | 0.00 | 78 | 977.7 |
| 20260901121052 | 75 | 312 | 0.0 | 0.0 | 0.00 | 0.00 | 0.00 | 78 | 977.8 |
| 20260901120552 | 75 | 312 | 0.0 | 0.0 | 0.00 | 0.00 | 0.00 | 78 | 977.7 |
| 20260901120107 | 75 | 312 | 0.0 | 1.0 | 0.00 | 0.00 | 0.00 | 78 | 977.7 |
| 20260901115550 | 74 | 312 | 0.0 | 1.0 | 0.00 | 0.00 | 0.00 | 79 | 977.6 |